When you browse on this site, cookies collect data to enhance your experience and personalize the content and advertising you see.
Visit our Privacy Policy to learn more. By continuing to use the site, you agree to this use of cookies and data.
  • In Österreich
  • Länderverzeichnis
  • Für 7 Tage
  • Wassertemperatur
  • Satellitenkarten
  • Wetterkarte
  • News
  • Widgets
  • user-avatar
    Anmelden

    Stündliche Wetter Ganja

    Heute, 20 März, Mittwoch

    Zeit Temperatur Niederschläge Wind Luftdruck Luftfeuchtigkeit
    00:00 +7°C° 0 mm 1 m/S 729 mmHg 82%
    01:00 +7°C° 0 mm 1 m/S 729 mmHg 82%
    02:00 +7°C° 0 mm 1 m/S 728 mmHg 82%
    03:00 +7°C° 0 mm 1 m/S 728 mmHg 81%
    04:00 +7°C° 0.1 mm 1 m/S 728 mmHg 80%
    05:00 +7°C° 0.1 mm 1 m/S 728 mmHg 80%
    06:00 +6°C° 0.1 mm 2 m/S 728 mmHg 79%
    07:00 +7°C° 0.1 mm 2 m/S 728 mmHg 76%
    08:00 +7°C° 0.1 mm 2 m/S 728 mmHg 72%
    09:00 +8°C° 0 mm 2 m/S 727 mmHg 70%
    10:00 +9°C° 0.1 mm 3 m/S 727 mmHg 68%
    11:00 +9°C° 0.1 mm 3 m/S 727 mmHg 66%
    12:00 +10°C° 0.1 mm 3 m/S 727 mmHg 64%
    13:00 +10°C° 0.1 mm 4 m/S 727 mmHg 65%
    14:00 +10°C° 0.1 mm 4 m/S 726 mmHg 66%
    15:00 +10°C° 0.1 mm 4 m/S 726 mmHg 67%
    16:00 +10°C° 0.1 mm 4 m/S 726 mmHg 71%
    17:00 +8°C° 0.1 mm 4 m/S 726 mmHg 74%
    18:00 +8°C° 0.1 mm 3 m/S 726 mmHg 78%
    19:00 +8°C° 0.1 mm 3 m/S 727 mmHg 80%
    20:00 +8°C° 0.1 mm 3 m/S 727 mmHg 83%
    21:00 +7°C° 0.1 mm 2 m/S 727 mmHg 85%
    22:00 +7°C° 0 mm 2 m/S 727 mmHg 86%
    23:00 +7°C° 0 mm 2 m/S 727 mmHg 88%

    Morgen, 21 März, Donnerstag

    Zeit Temperatur Niederschläge Wind Luftdruck Luftfeuchtigkeit
    00:00 +8°C° 0 mm 1 m/S 727 mmHg 89%
    01:00 +7°C° 0 mm 1 m/S 727 mmHg 90%
    02:00 +7°C° 0 mm 1 m/S 727 mmHg 90%
    03:00 +7°C° 0 mm 1 m/S 727 mmHg 91%
    04:00 +7°C° 0 mm 1 m/S 727 mmHg 90%
    05:00 +7°C° 0 mm 1 m/S 727 mmHg 89%
    06:00 +6°C° 0 mm 1 m/S 727 mmHg 88%
    07:00 +8°C° 0 mm 1 m/S 727 mmHg 82%
    08:00 +8°C° 0 mm 2 m/S 728 mmHg 77%
    09:00 +9°C° 0 mm 2 m/S 728 mmHg 71%
    10:00 +10°C° 0 mm 2 m/S 727 mmHg 67%
    11:00 +12°C° 0 mm 2 m/S 727 mmHg 62%
    12:00 +13°C° 0 mm 2 m/S 727 mmHg 58%
    13:00 +13°C° 0 mm 2 m/S 726 mmHg 56%
    14:00 +14°C° 0 mm 2 m/S 726 mmHg 55%
    15:00 +13°C° 0 mm 3 m/S 726 mmHg 53%
    16:00 +13°C° 0 mm 3 m/S 726 mmHg 56%
    17:00 +12°C° 0 mm 3 m/S 726 mmHg 60%
    18:00 +12°C° 0 mm 3 m/S 726 mmHg 63%
    19:00 +11°C° 0 mm 3 m/S 726 mmHg 67%
    20:00 +10°C° 0 mm 3 m/S 727 mmHg 70%
    21:00 +10°C° 0 mm 2 m/S 727 mmHg 74%
    22:00 +9°C° 0 mm 2 m/S 727 mmHg 76%
    23:00 +9°C° 0 mm 2 m/S 727 mmHg 78%

    übermorgen, 22 März, Freitag

    Zeit Temperatur Niederschläge Wind Luftdruck Luftfeuchtigkeit
    00:00 +8°C° 0 mm 2 m/S 727 mmHg 81%
    01:00 +9°C° 0 mm 1 m/S 727 mmHg 82%
    02:00 +9°C° 0 mm 1 m/S 727 mmHg 84%
    03:00 +7°C° 0 mm 0 m/S 727 mmHg 86%
    04:00 +7°C° 0 mm 0 m/S 727 mmHg 87%
    05:00 +7°C° 0 mm 0 m/S 727 mmHg 88%
    06:00 +7°C° 0 mm 0 m/S 727 mmHg 89%
    07:00 +9°C° 0 mm 1 m/S 727 mmHg 79%
    08:00 +9°C° 0 mm 2 m/S 728 mmHg 69%
    09:00 +10°C° 0 mm 3 m/S 728 mmHg 59%
    10:00 +11°C° 0 mm 3 m/S 727 mmHg 53%
    11:00 +12°C° 0 mm 3 m/S 727 mmHg 47%
    12:00 +12°C° 0 mm 3 m/S 726 mmHg 41%
    13:00 +13°C° 0 mm 3 m/S 726 mmHg 41%
    14:00 +13°C° 0 mm 3 m/S 725 mmHg 40%
    15:00 +14°C° 0 mm 2 m/S 725 mmHg 39%
    16:00 +14°C° 0 mm 2 m/S 725 mmHg 40%
    17:00 +14°C° 0 mm 2 m/S 725 mmHg 42%
    18:00 +13°C° 0 mm 2 m/S 725 mmHg 43%
    19:00 +13°C° 0.1 mm 2 m/S 726 mmHg 45%
    20:00 +11°C° 0.1 mm 3 m/S 727 mmHg 46%
    21:00 +10°C° 0.1 mm 4 m/S 727 mmHg 48%
    22:00 +8°C° 0.3 mm 4 m/S 727 mmHg 54%
    23:00 +7°C° 0.3 mm 5 m/S 727 mmHg 60%

    23 März, Samstag

    Zeit Temperatur Niederschläge Wind Luftdruck Luftfeuchtigkeit
    00:00 +5°C° 0.3 mm 6 m/S 728 mmHg 66%
    01:00 +6°C° 0.4 mm 5 m/S 728 mmHg 65%
    02:00 +5°C° 0.4 mm 4 m/S 728 mmHg 63%
    03:00 +5°C° 0.4 mm 4 m/S 728 mmHg 62%
    04:00 +5°C° 0 mm 3 m/S 728 mmHg 63%
    05:00 +4°C° 0 mm 3 m/S 728 mmHg 64%
    06:00 +4°C° 0 mm 3 m/S 729 mmHg 65%
    07:00 +5°C° 0 mm 3 m/S 728 mmHg 61%
    08:00 +7°C° 0 mm 3 m/S 728 mmHg 57%
    09:00 +7°C° 0 mm 4 m/S 728 mmHg 53%
    10:00 +8°C° 0 mm 4 m/S 728 mmHg 51%
    11:00 +9°C° 0 mm 3 m/S 727 mmHg 49%
    12:00 +10°C° 0 mm 3 m/S 726 mmHg 47%
    13:00 +10°C° 0 mm 3 m/S 726 mmHg 46%
    14:00 +11°C° 0 mm 3 m/S 725 mmHg 44%
    15:00 +12°C° 0 mm 2 m/S 724 mmHg 42%
    16:00 +12°C° 0 mm 2 m/S 724 mmHg 43%
    17:00 +12°C° 0 mm 2 m/S 724 mmHg 44%
    18:00 +10°C° 0 mm 2 m/S 724 mmHg 45%
    19:00 +9°C° 0 mm 2 m/S 724 mmHg 45%
    20:00 +8°C° 0 mm 2 m/S 724 mmHg 45%
    21:00 +7°C° 0 mm 2 m/S 725 mmHg 45%
    22:00 +7°C° 0 mm 2 m/S 725 mmHg 48%
    23:00 +6°C° 0 mm 2 m/S 724 mmHg 51%

    24 März, Sonntag

    Zeit Temperatur Niederschläge Wind Luftdruck Luftfeuchtigkeit
    00:00 +6°C° 0 mm 2 m/S 724 mmHg 54%
    01:00 +5°C° 0.1 mm 3 m/S 724 mmHg 58%
    02:00 +5°C° 0.1 mm 4 m/S 724 mmHg 62%
    03:00 +3°C° 0.1 mm 5 m/S 724 mmHg 65%
    04:00 +3°C° 0.1 mm 5 m/S 725 mmHg 64%
    05:00 +4°C° 0.1 mm 4 m/S 725 mmHg 63%
    06:00 +4°C° 0.1 mm 4 m/S 726 mmHg 63%
    07:00 +6°C° 0 mm 5 m/S 726 mmHg 56%
    08:00 +7°C° 0 mm 6 m/S 727 mmHg 48%
    09:00 +8°C° 0 mm 7 m/S 727 mmHg 41%
    10:00 +9°C° 0 mm 7 m/S 727 mmHg 39%
    11:00 +10°C° 0 mm 6 m/S 726 mmHg 37%
    12:00 +11°C° 0 mm 6 m/S 726 mmHg 35%
    13:00 +11°C° 0 mm 6 m/S 726 mmHg 34%
    14:00 +13°C° 0 mm 5 m/S 725 mmHg 33%
    15:00 +13°C° 0 mm 5 m/S 725 mmHg 32%
    16:00 +13°C° 0 mm 4 m/S 725 mmHg 35%
    17:00 +12°C° 0 mm 4 m/S 725 mmHg 38%
    18:00 +11°C° 0 mm 3 m/S 725 mmHg 41%
    19:00 +10°C° 0 mm 3 m/S 726 mmHg 44%
    20:00 +9°C° 0 mm 3 m/S 726 mmHg 46%
    21:00 +8°C° 0 mm 3 m/S 727 mmHg 49%
    22:00 +8°C° 0 mm 3 m/S 727 mmHg 50%
    23:00 +7°C° 0 mm 2 m/S 727 mmHg 50%

    25 März, Montag

    Zeit Temperatur Niederschläge Wind Luftdruck Luftfeuchtigkeit
    00:00 +7°C° 0 mm 2 m/S 726 mmHg 51%
    01:00 +7°C° 0 mm 2 m/S 726 mmHg 52%
    02:00 +6°C° 0 mm 2 m/S 726 mmHg 52%
    03:00 +6°C° 0 mm 2 m/S 726 mmHg 53%
    04:00 +6°C° 0 mm 2 m/S 726 mmHg 53%
    05:00 +6°C° 0 mm 2 m/S 726 mmHg 54%
    06:00 +5°C° 0 mm 2 m/S 726 mmHg 54%
    07:00 +7°C° 0 mm 2 m/S 726 mmHg 51%
    08:00 +8°C° 0 mm 2 m/S 726 mmHg 48%
    09:00 +10°C° 0 mm 2 m/S 726 mmHg 45%
    10:00 +12°C° 0 mm 2 m/S 725 mmHg 44%
    11:00 +13°C° 0 mm 2 m/S 725 mmHg 43%
    12:00 +14°C° 0 mm 2 m/S 725 mmHg 42%
    13:00 +14°C° 0 mm 2 m/S 725 mmHg 41%
    14:00 +15°C° 0 mm 2 m/S 724 mmHg 41%
    15:00 +15°C° 0 mm 2 m/S 724 mmHg 41%
    16:00 +15°C° 0 mm 2 m/S 725 mmHg 43%
    17:00 +13°C° 0 mm 3 m/S 725 mmHg 45%
    18:00 +13°C° 0 mm 3 m/S 726 mmHg 48%
    19:00 +12°C° 0 mm 3 m/S 726 mmHg 50%
    20:00 +11°C° 0 mm 3 m/S 727 mmHg 52%
    21:00 +11°C° 0 mm 3 m/S 728 mmHg 54%
    22:00 +10°C° 0 mm 3 m/S 728 mmHg 59%
    23:00 +9°C° 0 mm 3 m/S 728 mmHg 63%
    Mehr zeigen